Weather History for KARG - January, 2014

Change the Weather History Date:

Sunday, January 26, 2014

  Actual Average Record
Temperature  
Mean Temperature 45 °F -  
Max Temperature 64 °F 43 °F 64 °F (2014)
Min Temperature 26 °F 29 °F 19 °F (2000)
Degree Days  
Heating Degree Days 20    
Moisture  
Dew Point 28 °F    
Average Humidity 57    
Maximum Humidity 74    
Minimum Humidity 34    
Precipitation  
Precipitation 0.00 in - - ()
Sea Level Pressure  
Sea Level Pressure 29.78 in    
Wind  
Wind Speed 9 mph (SSW)    
Max Wind Speed 23 mph    
Max Gust Speed 26 mph    
Visibility 10 miles    
Events      
Averages and records for this station are not official NWS values.
T = Trace of Precipitation, MM = Missing Value Source: NWS Daily Summary

Daily Weather History Graph

Daily Weather History Graph

Search for Another Location

Airport or City:

Trip Planner

Search our weather history database for the weather conditions in past years. The results will help you decide how hot, cold, wet, or windy it might be!

Date:

Astronomy

Jan. 26, 2014 Rise Set
Actual Time 7:08 AM CST 5:24 PM CST
Civil Twilight 6:41 AM CST 5:51 PM CST
Nautical Twilight 6:10 AM CST 6:22 PM CST
Astronomical Twilight 5:40 AM CST 6:52 PM CST
Moon 2:45 AM CST (1/26) 1:14 PM CST (1/26)
Length of Visible Light 11h 10m
Length of Day
10h 15m
Waning Crescent, 23% of the Moon is Illuminated
Jan 26
Waning Crescent
Jan 30
New
Feb 6
First Quarter
Feb 14
Full
Feb 22
Last Quarter

Hourly Weather History & Observations

Time (CST) Temp. Windchill Dew Point Humidity Pressure Visibility Wind Dir Wind Speed Gust Speed Precip Events Conditions
12:15 AM 30.2 °F 24.3 °F 19.4 °F 64% 29.97 in 10.0 mi SSE 5.8 mph - N/A   Clear
12:35 AM 30.2 °F 25.4 °F 19.4 °F 64% 29.96 in 10.0 mi SSE 4.6 mph - N/A   Clear
12:55 AM 32.0 °F 26.4 °F 21.2 °F 64% 29.96 in 10.0 mi SSE 5.8 mph - N/A   Clear
1:15 AM 30.2 °F 26.7 °F 19.4 °F 64% 29.95 in 10.0 mi South 3.5 mph - N/A   Clear
1:35 AM 30.2 °F 25.4 °F 21.2 °F 69% 29.94 in 10.0 mi SSE 4.6 mph - N/A   Clear
1:55 AM 30.2 °F 23.4 °F 19.4 °F 64% 29.93 in 10.0 mi SSE 6.9 mph - N/A   Clear
2:15 AM 28.4 °F 24.6 °F 19.4 °F 69% 29.93 in 10.0 mi SE 3.5 mph - N/A   Clear
2:35 AM 30.2 °F - 19.4 °F 64% 29.93 in 10.0 mi Calm Calm - N/A   Clear
2:55 AM 28.4 °F - 19.4 °F 69% 29.93 in 10.0 mi Calm Calm - N/A   Clear
3:15 AM 26.6 °F - 17.6 °F 69% 29.91 in 10.0 mi Calm Calm - N/A   Clear
3:35 AM 28.4 °F 22.2 °F 19.4 °F 69% 29.89 in 10.0 mi South 5.8 mph - N/A   Clear
3:55 AM 26.6 °F 19.1 °F 17.6 °F 69% 29.88 in 10.0 mi South 6.9 mph - N/A   Clear
4:15 AM 26.6 °F 18.2 °F 19.4 °F 74% 29.87 in 10.0 mi South 8.1 mph - N/A   Clear
4:35 AM 28.4 °F 22.2 °F 19.4 °F 69% 29.87 in 10.0 mi South 5.8 mph - N/A   Clear
4:55 AM 28.4 °F 20.4 °F 17.6 °F 64% 29.85 in 10.0 mi South 8.1 mph - N/A   Clear
5:15 AM 28.4 °F 20.4 °F 17.6 °F 64% 29.83 in 10.0 mi South 8.1 mph - N/A   Clear
5:35 AM 28.4 °F 19.7 °F 17.6 °F 64% 29.82 in 10.0 mi South 9.2 mph - N/A   Clear
5:55 AM 28.4 °F 19.1 °F 17.6 °F 64% 29.82 in 10.0 mi South 10.4 mph - N/A   Clear
6:15 AM 30.2 °F 21.9 °F 19.4 °F 64% 29.83 in 10.0 mi SSW 9.2 mph - N/A   Clear
6:35 AM 30.2 °F 22.6 °F 19.4 °F 64% 29.83 in 10.0 mi SW 8.1 mph - N/A   Clear
6:55 AM 30.2 °F 24.3 °F 19.4 °F 64% 29.81 in 10.0 mi SSW 5.8 mph - N/A   Clear
7:15 AM 30.2 °F 22.6 °F 19.4 °F 64% 29.81 in 10.0 mi SSW 8.1 mph - N/A   Clear
7:35 AM 33.8 °F 24.8 °F 21.2 °F 60% 29.80 in 10.0 mi SSW 12.7 mph - N/A   Clear
7:55 AM 35.6 °F 26.6 °F 23.0 °F 60% 29.80 in 10.0 mi SSW 13.8 mph - N/A   Clear
8:15 AM 35.6 °F 27.5 °F 24.8 °F 65% 29.80 in 10.0 mi SSW 11.5 mph - N/A   Clear
8:35 AM 37.4 °F 30.3 °F 24.8 °F 60% 29.81 in 10.0 mi SSW 10.4 mph - N/A   Clear
8:55 AM 39.2 °F 34.2 °F 26.6 °F 61% 29.81 in 10.0 mi SW 6.9 mph - N/A   Clear
9:15 AM 41.0 °F 34.7 °F 26.6 °F 57% 29.80 in 10.0 mi SSW 10.4 mph - N/A   Clear
9:35 AM 44.6 °F 39.2 °F 28.4 °F 53% 29.80 in 10.0 mi SSW 10.4 mph - N/A   Clear
9:55 AM 44.6 °F 38.1 °F 28.4 °F 53% 29.80 in 10.0 mi SSW 13.8 mph - N/A   Clear
10:15 AM 46.4 °F 40.1 °F 30.2 °F 53% 29.79 in 10.0 mi South 15.0 mph - N/A   Clear
10:35 AM 48.2 °F - 30.2 °F 50% 29.79 in 10.0 mi South 13.8 mph - N/A   Clear
10:55 AM 48.2 °F - 30.2 °F 50% 29.78 in 10.0 mi South 18.4 mph - N/A   Clear
11:15 AM 50.0 °F - 30.2 °F 47% 29.77 in 10.0 mi South 13.8 mph - N/A   Clear
11:35 AM 51.8 °F - 33.8 °F 50% 29.77 in 10.0 mi SSW 15.0 mph - N/A   Clear
11:55 AM 55.4 °F - 33.8 °F 44% 29.75 in 10.0 mi SSW 16.1 mph 21.9 mph N/A   Clear
12:15 PM 57.2 °F - 33.8 °F 41% 29.73 in 10.0 mi SSW 23.0 mph - N/A   Clear
12:35 PM 60.8 °F - 35.6 °F 39% 29.73 in 10.0 mi SSW 17.3 mph - N/A   Clear
12:55 PM 60.8 °F - 35.6 °F 39% 29.71 in 10.0 mi SSW 18.4 mph - N/A   Clear
1:15 PM 62.6 °F - 35.6 °F 37% 29.70 in 10.0 mi SSW 17.3 mph - N/A   Clear
1:35 PM 62.6 °F - 37.4 °F 39% 29.69 in 10.0 mi South 17.3 mph - N/A   Clear
1:55 PM 62.6 °F - 37.4 °F 39% 29.68 in 10.0 mi South 16.1 mph - N/A   Clear
2:15 PM 64.4 °F - 35.6 °F 34% 29.67 in 10.0 mi SSW 19.6 mph 26.5 mph N/A   Clear
2:35 PM 62.6 °F - 37.4 °F 39% 29.67 in 10.0 mi South 18.4 mph 24.2 mph N/A   Clear
2:55 PM 62.6 °F - 37.4 °F 39% 29.67 in 10.0 mi South 17.3 mph 25.3 mph N/A   Clear
3:15 PM 62.6 °F - 37.4 °F 39% 29.67 in 10.0 mi South 19.6 mph - N/A   Clear
3:35 PM 62.6 °F - 37.4 °F 39% 29.67 in 10.0 mi South 18.4 mph - N/A   Clear
3:55 PM 60.8 °F - 37.4 °F 42% 29.67 in 10.0 mi South 16.1 mph - N/A   Clear
4:15 PM 60.8 °F - 37.4 °F 42% 29.66 in 10.0 mi South 16.1 mph 20.7 mph N/A   Clear
4:35 PM 59.0 °F - 37.4 °F 45% 29.66 in 10.0 mi South 17.3 mph - N/A   Clear
4:55 PM 57.2 °F - 35.6 °F 44% 29.66 in 10.0 mi South 18.4 mph 23.0 mph N/A   Clear
5:15 PM 55.4 °F - 35.6 °F 47% 29.67 in 10.0 mi South 17.3 mph - N/A   Clear
5:35 PM 53.6 °F - 35.6 °F 51% 29.67 in 10.0 mi South 18.4 mph - N/A   Clear
5:55 PM 51.8 °F - 35.6 °F 54% 29.68 in 10.0 mi South 17.3 mph - N/A   Clear
6:15 PM 51.8 °F - 33.8 °F 50% 29.68 in 10.0 mi South 15.0 mph - N/A   Clear
6:35 PM 48.2 °F - 33.8 °F 58% 29.69 in 10.0 mi South 13.8 mph - N/A   Clear
6:55 PM 48.2 °F - 33.8 °F 58% 29.69 in 10.0 mi South 12.7 mph - N/A   Clear
7:15 PM 46.4 °F 41.1 °F 33.8 °F 62% 29.69 in 10.0 mi South 11.5 mph - N/A   Clear
7:35 PM 46.4 °F 41.9 °F 33.8 °F 62% 29.70 in 10.0 mi SSW 9.2 mph - N/A   Clear
7:55 PM 44.6 °F 40.2 °F 33.8 °F 66% 29.71 in 10.0 mi SSW 8.1 mph - N/A   Clear
8:15 PM 46.4 °F 41.5 °F 33.8 °F 62% 29.72 in 10.0 mi SSW 10.4 mph - N/A   Clear
8:35 PM 44.6 °F 40.2 °F 33.8 °F 66% 29.73 in 10.0 mi SW 8.1 mph - N/A   Clear
8:55 PM 44.6 °F 39.7 °F 33.8 °F 66% 29.74 in 10.0 mi SW 9.2 mph - N/A   Clear
9:15 PM 44.6 °F 38.8 °F 33.8 °F 66% 29.75 in 10.0 mi SW 11.5 mph - N/A   Clear
9:35 PM 44.6 °F 39.2 °F 32.0 °F 61% 29.75 in 10.0 mi SW 10.4 mph - N/A   Clear
9:55 PM 44.6 °F 40.2 °F 33.8 °F 66% 29.77 in 10.0 mi SW 8.1 mph - N/A   Clear
10:15 PM 44.6 °F 40.2 °F 32.0 °F 61% 29.78 in 10.0 mi SSW 8.1 mph - N/A   Clear
10:35 PM 41.0 °F 38.0 °F 30.2 °F 65% 29.80 in 10.0 mi West 4.6 mph - N/A   Clear
10:55 PM 39.2 °F 37.0 °F 30.2 °F 70% 29.80 in 10.0 mi SSW 3.5 mph - N/A   Clear
11:15 PM 39.2 °F 37.0 °F 28.4 °F 65% 29.80 in 10.0 mi SW 3.5 mph - N/A   Clear
11:35 PM 35.6 °F 32.8 °F 26.6 °F 70% 29.81 in 10.0 mi South 3.5 mph - N/A   Clear
11:55 PM 37.4 °F 34.9 °F 28.4 °F 70% 29.82 in 10.0 mi SSW 3.5 mph - N/A   Clear